Probability
24 21 16 11 6 4 4 4 3 1 0 0 0 0 0 0 0 0 0 0 0 0 0 0 0 2 4 5 6 6 5 5 6 7 8 7 7 9 9 6 4 4 5
24 20 14 10 6 4 4 3 3 2 1 0 0 0 0 0 0 0 0 0 0 0 0 0 0 2 4 5 6 6 6 6 7 8 9 9 10 11 11 9 6 6 6
22 17 13 10 7 4 3 3 2 2 1 0 0 0 0 0 0 0 0 0 0 0 0 0 0 1 3 5 6 7 7 8 9 9 10 11 12 12 13 11 9 8 9
17 15 13 11 9 5 3 3 3 3 2 1 0 0 0 0 0 0 0 0 0 0 0 0 0 1 2 4 6 7 8 8 9 9 10 10 11 11 11 12 11 10 10
12 13 13 13 10 6 3 3 3 3 2 1 0 0 0 0 0 0 0 0 0 0 0 0 0 0 1 3 4 6 7 8 8 8 8 8 8 9 10 11 11 10 11
9 11 13 13 10 7 4 3 3 2 1 0 0 0 0 0 0 0 0 0 0 0 0 0 0 0 0 1 2 4 5 6 6 7 7 6 5 6 9 11 11 11 13
6 8 10 10 9 6 5 3 2 1 0 0 0 0 0 0 0 0 0 0 0 0 0 0 0 0 0 0 1 1 2 3 5 5 5 4 4 5 8 10 10 11 14
4 5 6 7 6 5 3 2 1 0 0 0 0 0 0 0 0 0 0 0 0 0 0 0 0 0 0 0 0 0 1 2 3 3 4 4 4 5 7 9 9 10 11
3 3 4 6 6 4 2 1 0 0 0 0 0 0 0 0 0 0 0 0 0 0 0 0 0 0 0 0 0 0 0 1 2 3 3 4 4 5 7 8 8 8 8
3 3 4 5 6 4 2 1 0 0 0 0 0 0 0 0 0 0 0 0 0 0 0 0 0 0 0 0 0 0 0 0 2 4 4 4 5 5 6 6 7 7 7
4 3 3 4 5 5 3 1 0 0 0 0 0 0 0 0 0 0 0 0 0 0 0 0 0 0 0 0 0 0 0 0 1 3 5 5 4 4 5 5 5 6 6
3 3 3 4 5 4 3 2 1 0 0 0 0 0 0 0 0 0 0 1 1 0 0 0 0 0 0 0 1 0 0 0 1 2 4 4 3 3 4 4 4 5 5
1 2 3 3 3 2 2 3 3 1 0 0 0 0 0 0 0 0 1 2 1 0 0 0 0 0 0 0 0 0 0 0 0 1 3 3 2 2 3 3 4 6 6
0 1 2 3 2 1 1 2 3 2 1 0 0 0 0 0 0 0 1 2 1 0 0 0 0 0 0 0 0 0 0 0 0 1 2 2 1 0 1 1 3 5 4
0 0 1 3 2 1 1 2 2 2 1 0 0 0 0 0 0 1 2 2 1 0 0 0 0 0 0 0 0 0 0 0 0 0 1 1 0 0 0 0 1 2 2
0 0 1 2 2 1 0 1 1 1 0 0 0 0 0 0 0 1 1 1 0 0 0 0 0 0 0 0 0 0 0 0 0 0 0 0 0 0 0 0 0 0 0
0 0 0 1 1 0 0 0 0 0 0 0 0 0 0 0 0 0 0 0 0 0 0 0 0 0 0 0 0 0 0 0 0 0 0 0 0 0 0 0 0 0 0
0 0 0 0 0 0 0 0 0 0 0 0 0 0 0 0 0 0 0 0 0 0 0 0 0 0 0 0 0 0 0 0 0 0 0 0 0 0 0 0 0 0 0
0 0 0 0 0 0 0 0 0 0 0 0 0 0 0 0 0 0 0 0 0 0 0 0 0 0 0 0 0 0 0 0 0 0 0 0 0 0 0 0 0 0 0
0 0 0 0 0 0 0 0 0 0 0 0 0 0 0 0 0 0 0 0 0 0 0 0 0 0 0 0 0 0 0 0 0 0 0 0 0 0 0 0 0 0 0
0 0 0 0 0 0 0 0 0 0 0 0 0 0 0 0 0 0 0 0 0 0 0 0 0 0 0 0 0 0 0 0 0 0 0 0 0 0 0 0 0 0 0
0 0 0 0 0 0 0 0 0 0 0 0 0 0 0 0 0 0 0 0 0 0 0 0 0 0 0 0 0 0 0 0 0 0 0 0 0 0 0 0 0 0 0
0 0 0 0 0 0 0 0 0 0 0 0 0 0 0 0 0 0 0 0 0 0 0 0 0 0 0 0 0 0 0 0 0 0 0 0 0 0 0 0 0 0 0
0 0 0 0 0 0 0 0 0 0 0 0 0 0 0 0 0 0 0 0 0 0 0 0 0 0 0 0 0 0 0 0 0 0 0 0 0 0 0 0 0 0 0
0 0 0 0 0 0 0 0 0 0 0 0 0 0 0 0 0 0 0 0 0 0 0 0 0 0 0 0 0 0 0 0 0 0 0 0 0 0 0 0 0 0 0
0 0 0 0 0 0 0 0 0 0 0 0 0 0 0 0 0 0 0 0 0 0 0 0 0 0 0 0 0 0 0 0 0 0 0 0 0 0 0 0 0 0 0
Wind_Speed
7 6 6 6 7 6 7 6 6 7 7 7 6 7 7 7 6 5 3 5 7 7 8 8 9 9 8 8 8 7 7 7 7 6 6 6 6 6 7 6 6 6 6
7 7 6 6 6 6 6 6 7 6 6 5 6 7 7 7 7 6 5 5 7 8 8 9 9 9 10 10 9 9 9 8 8 8 8 8 8 7 7 7 7 7 7
8 7 6 6 6 6 7 6 7 6 5 6 7 7 6 7 7 7 6 5 5 7 8 10 10 10 10 10 10 10 10 9 9 9 9 9 9 8 8 7 7 7 8
8 7 6 6 7 6 6 6 6 6 5 5 6 5 6 6 8 7 6 6 5 5 7 8 10 10 11 11 11 11 11 10 10 10 9 9 9 9 9 8 8 8 8
8 7 6 6 7 5 6 6 6 6 6 6 5 5 6 6 7 7 7 7 7 6 6 6 8 9 10 11 12 12 12 11 11 11 10 10 9 9 9 9 9 9 8
7 7 5 7 7 6 6 6 6 6 5 5 5 5 6 6 6 7 8 7 7 7 8 7 6 6 9 10 12 13 12 12 12 12 11 11 10 10 10 10 10 10 9
5 6 5 5 6 6 6 7 6 6 5 4 4 4 5 7 8 6 6 7 7 8 8 8 7 6 5 9 11 12 13 13 13 12 12 12 11 11 11 11 11 10 10
3 4 5 5 6 5 6 7 6 5 5 4 4 3 4 5 6 6 7 7 8 7 8 8 8 8 7 6 6 10 11 13 14 14 13 13 12 11 11 11 10 10 9
3 3 4 5 5 6 6 7 7 7 6 6 5 5 4 5 4 5 8 7 8 7 7 7 9 9 9 7 7 8 9 11 13 14 14 14 13 12 12 11 10 9 8
3 4 4 4 5 5 6 6 7 6 6 6 5 6 6 4 5 5 5 7 8 8 8 7 8 9 9 7 7 8 8 10 13 14 15 13 13 12 11 11 10 9 8
2 2 3 4 4 4 5 6 7 7 6 6 6 6 6 5 7 6 6 6 6 7 7 7 7 7 8 8 7 8 8 11 14 15 15 14 13 12 11 9 8 8 7
1 2 2 3 3 4 5 5 6 7 7 7 6 6 6 6 6 6 7 7 7 6 6 6 6 6 6 7 8 7 8 11 13 14 14 13 12 11 10 9 8 7 7
1 2 2 3 3 3 4 5 5 6 7 7 7 6 6 7 5 6 6 6 7 6 5 6 6 6 5 6 6 7 8 9 10 12 13 13 12 10 9 9 8 6 5
2 2 2 3 3 3 4 4 4 5 6 6 7 7 6 6 5 5 6 5 6 6 6 7 5 6 5 5 6 7 7 8 8 9 10 10 8 6 6 7 6 5 4
1 2 3 3 3 3 3 3 3 4 5 6 6 7 7 5 5 4 5 5 6 7 8 7 5 5 5 5 5 6 6 6 8 8 8 7 6 6 6 6 5 4 3
2 2 2 3 3 3 3 3 3 4 5 6 5 7 7 6 5 5 5 5 6 7 8 5 5 5 5 5 6 6 6 6 8 8 8 6 6 6 7 6 5 3 3
2 2 3 3 3 3 3 4 4 4 5 6 6 7 8 7 6 5 5 5 6 6 8 5 4 5 5 5 5 4 4 5 5 8 7 7 6 6 6 6 5 3 3
2 2 3 3 3 3 3 4 5 5 6 6 6 7 7 6 7 6 5 6 6 6 6 7 5 4 5 5 4 4 3 3 3 6 7 7 6 6 6 5 4 2 2
2 2 2 2 2 3 3 4 5 5 6 6 6 7 7 7 7 5 6 6 5 5 5 5 5 3 3 3 3 2 2 1 1 3 5 6 6 5 5 5 4 2 1
2 2 2 2 3 3 3 4 4 5 5 5 6 6 6 7 7 6 6 6 5 5 5 4 3 3 2 2 2 2 2 1 1 1 2 3 4 5 5 4 3 2 2
2 2 2 2 2 2 3 4 4 4 5 5 5 5 6 7 8 6 5 5 5 5 4 3 3 3 2 2 3 2 2 1 1 0 0 1 2 2 3 3 2 2 2
2 2 2 2 2 2 4 5 5 4 4 5 5 5 5 5 5 6 7 6 6 5 5 4 3 4 4 3 2 2 2 1 1 1 1 0 1 2 1 1 2 2 2
3 3 3 2 3 3 5 5 5 4 4 4 4 4 4 4 5 5 5 6 6 5 5 5 5 5 5 4 4 4 3 3 2 1 1 1 1 1 1 1 2 2 1
3 3 3 3 3 4 5 6 6 4 4 4 4 4 4 5 4 5 5 5 5 4 4 4 5 4 3 3 4 3 3 2 2 1 1 1 1 0 1 1 1 1 1
3 3 3 3 3 4 5 5 5 3 3 4 5 4 4 4 5 5 5 5 5 4 2 3 2 1 1 3 3 3 3 3 1 0 0 1 1 1 1 1 1 1 1
2 3 3 3 3 4 5 5 5 3 3 4 4 4 4 5 6 6 5 4 4 4 2 2 1 1 1 2 3 3 3 3 2 1 1 2 2 2 1 1 1 1 1
Wind_Direction
192 190 192 190 194 193 195 198 203 203 210 215 219 225 228 231 236 235 218 204 230 245 243 238 237 239 242 244 246 246 244 246 250 254 260 265 265 267 266 265 270 270 273
194 191 193 193 196 196 198 203 205 208 214 219 226 230 234 236 239 238 242 219 220 236 245 244 244 246 245 245 247 248 247 249 252 254 257 262 264 266 266 264 265 268 267
197 195 196 195 196 198 201 205 208 213 217 222 229 233 237 240 242 242 242 244 232 225 237 246 247 250 252 251 250 251 251 250 253 255 257 260 259 261 262 261 262 267 266
196 195 196 198 197 196 201 204 208 213 218 226 231 232 237 240 245 247 245 243 246 244 234 240 249 251 252 253 254 254 252 251 250 250 253 257 259 258 258 259 263 266 265
198 196 200 198 194 196 201 203 208 214 220 226 234 239 242 241 243 245 247 247 247 249 251 238 240 249 254 255 257 258 258 254 249 248 249 252 254 256 256 255 260 262 265
200 200 200 201 196 196 201 204 207 213 224 227 237 243 246 246 243 242 246 246 244 246 250 254 247 242 244 253 256 258 261 259 250 248 247 247 250 253 256 254 254 259 260
201 199 198 198 199 201 202 204 205 210 219 218 231 246 249 246 244 241 243 244 244 247 251 252 252 253 245 244 251 258 260 261 255 250 249 247 247 249 254 258 255 256 256
202 204 204 202 199 202 205 205 203 207 213 205 218 236 248 241 233 244 245 244 247 246 248 249 251 251 256 254 248 249 256 261 260 255 251 250 248 247 251 257 259 255 251
207 206 212 206 206 207 208 208 206 208 211 209 215 221 236 245 263 234 239 242 244 247 249 250 252 252 253 255 255 244 251 258 259 259 257 251 246 246 250 252 255 252 251
211 212 217 214 215 216 214 213 211 212 213 215 220 231 248 258 249 254 240 239 247 252 253 252 253 254 254 253 253 254 249 253 256 259 258 255 245 243 246 250 248 249 247
212 228 229 228 222 224 224 219 215 216 216 221 222 225 236 251 248 252 262 257 256 253 255 255 253 253 253 252 252 251 250 251 253 255 254 254 249 244 245 249 243 243 242
214 223 227 225 225 229 233 232 228 222 221 225 229 231 234 236 241 248 261 264 264 263 255 253 254 253 253 253 251 252 253 252 250 251 252 252 253 247 242 245 238 239 236
229 242 246 241 232 233 239 238 236 231 227 230 233 238 243 248 251 252 260 269 274 279 264 251 252 253 255 254 251 245 245 249 246 248 250 252 250 245 237 234 232 233 232
248 253 248 255 253 244 242 240 237 238 231 229 233 237 245 248 250 250 255 262 273 274 266 265 261 252 256 258 255 237 241 238 241 246 249 252 244 236 229 221 221 217 218
266 268 259 252 255 252 248 247 241 246 246 236 239 241 244 249 254 255 257 256 258 267 266 268 271 258 258 257 248 246 248 238 235 239 242 242 234 230 221 208 204 202 215
274 265 269 267 260 256 256 249 253 255 257 250 245 245 246 250 251 249 250 254 257 264 270 273 278 288 273 263 245 245 247 238 232 231 229 223 221 223 208 194 184 191 213
288 272 267 264 260 257 257 257 257 258 255 258 253 249 250 256 256 254 253 253 254 256 270 291 299 293 277 269 255 247 240 233 227 219 212 204 197 194 183 168 169 186 222
312 293 270 269 267 265 264 263 266 261 256 259 263 259 256 257 257 259 256 256 258 260 265 276 289 297 293 267 262 253 252 243 225 204 194 190 183 183 174 165 167 181 218
323 315 294 287 286 283 278 274 270 273 265 262 263 264 265 262 258 262 264 260 260 266 268 270 281 294 301 278 265 266 273 277 211 172 180 184 184 182 169 163 167 175 201
317 305 302 303 296 292 292 289 282 277 273 268 267 268 270 266 264 267 261 260 260 260 261 261 272 286 287 283 258 240 247 275 261 164 167 170 173 166 162 161 169 172 180
331 318 313 310 305 301 311 308 294 284 284 277 271 272 272 271 272 273 272 268 261 258 258 253 262 273 268 240 236 236 228 239 329 324 155 151 159 160 163 164 161 155 165
346 343 332 318 317 318 321 319 312 293 291 288 284 282 282 273 280 278 278 277 269 260 258 249 249 247 245 243 229 220 212 191 227 236 194 173 150 165 169 165 148 151 170
351 351 339 329 327 332 331 327 324 304 296 293 291 289 292 293 290 284 282 279 272 263 256 252 249 249 239 227 208 201 204 202 213 191 150 163 157 174 98 105 136 157 156
350 351 349 343 338 346 347 341 331 308 301 298 294 289 289 295 302 301 291 289 289 279 268 255 250 253 247 211 202 196 182 128 61 79 115 141 158 126 88 90 116 133 117
349 346 341 341 335 337 346 341 329 306 304 306 304 297 292 292 307 301 285 285 292 294 287 271 278 264 129 142 158 155 151 146 113 99 68 118 118 78 83 78 45 45 91
341 339 338 333 327 328 345 342 330 314 313 309 305 300 302 306 308 301 277 273 279 285 288 279 280 54 104 131 140 175 181 170 143 155 167 142 135 120 106 76 54 48 116